Simultaneous Nadir Overpasses (SNOs) Predictions

Prediction of SNOs between FY3D and NOAA-19 Satellite Orbit:

Table of predicted SNOs for the next 14.0 days since TLE Epoch: 12/17/2022
Index Date (FY3D) Time (FY3D) Lat,Lon (FY3D) SZA (FY3D ) Date (NOAA-19) Time (NOAA-19) Lat,Lon (NOAA-19) SZA (NOAA-19 ) Distance(km) Time Diff (sec)
1 12/17/2022 04:19:36 77.03, 102.17 100.57 12/17/2022 04:20:13 77.04, 102.13 100.58 2.01 37
2 12/17/2022 05:10:21 -77.03, -90.54 79.43 12/17/2022 05:11:18 -77.06, -90.57 79.41 3.05 57
3 12/17/2022 06:01:08 77.04, 76.74 100.58 12/17/2022 06:02:12 77.07, 76.74 100.60 3.14 64
4 12/17/2022 06:52:03 -77.47,-117.85 78.91 12/17/2022 06:53:09 -77.41,-114.42 79.13 83.26 66



Historial Predications of SNOs between FY3D and NOAA-19
